Back to catalog

COSMOS 1823 DEB

AliveLEO
NORAD 20285·DEBRIS·🇷🇺 Russia

Launched Feb 20, 1987 from Plesetsk Cosmodrome

Loading…

Next Passes (next 24 hours)

TLE

FreshSource: Space-Track

Epoch: Sep 13, 2026, 02:51 UTC

1 20285U 87020DP  26256.11903694 -.00000294  00000-0 -23251-2 0  9990
2 20285  73.6444  24.1538 0080027  99.7307  74.0054 12.30568607609184

Track COSMOS 1823 DEB in real time with AllMySat

Download on the App Store